This is the latest recevied weather packets stored in our database for station/object WX9WTF. If no packets are shown the sender has not sent any weather packets the latest 1 day(s).
| Time | Temp. | Humidity | Pressure | Rain* | Wind** | Luminosity | Snow |
|---|---|---|---|---|---|---|---|
| 1778035600 | 7.78° C | 98% | 1013.9 hPa | 0 mm | - | 0 W/m² | - |
| 1778035296 | 7.78° C | 98% | 1013.6 hPa | 0 mm | - | 0 W/m² | - |
| 1778034992 | 7.78° C | 98% | 1013.7 hPa | 0 mm | - | 0 W/m² | - |
| 1778034387 | 7.78° C | 98% | 1013.4 hPa | 0 mm | - | 0 W/m² | - |
| 1778034084 | 7.78° C | 98% | 1013.4 hPa | 0 mm | - | 0 W/m² | - |
| 1778033782 | 7.22° C | 98% | 1013.4 hPa | 0 mm | - | 0 W/m² | - |
| 1778033479 | 7.78° C | 98% | 1013.3 hPa | 0 mm | - | 0 W/m² | - |
| 1778033176 | 7.78° C | 98% | 1013.3 hPa | 0 mm | - | 0 W/m² | - |
| 1778032571 | 7.78° C | 97% | 1012.9 hPa | 0 mm | - | 0 W/m² | - |
| 1778032268 | 7.78° C | 97% | 1013 hPa | 0 mm | - | 0 W/m² | - |
| 1778031359 | 8.33° C | 97% | 1013.1 hPa | 0 mm | - | 0 W/m² | - |
| 1778031055 | 8.33° C | 97% | 1012.9 hPa | 0 mm | - | 0 W/m² | - |
| 1778030448 | 8.33° C | 97% | 1012.8 hPa | 0 mm | - | 1 W/m² | - |
| 1778030147 | 8.33° C | 97% | 1013 hPa | 0 mm | - | 2 W/m² | - |
| 1778029542 | 8.89° C | 97% | 1012.8 hPa | 0 mm | - | 6 W/m² | - |
| 1778029238 | 8.89° C | 97% | 1012.7 hPa | 0 mm | - | 7 W/m² | - |
| 1778028935 | 8.89° C | 97% | 1012.8 hPa | 0 mm | - | 9 W/m² | - |
| 1778028329 | 8.89° C | 96% | 1012.7 hPa | 0 mm | - | 18 W/m² | - |
| 1778028025 | 8.89° C | 96% | 1012.7 hPa | 0 mm | - | 19 W/m² | - |
| 1778027114 | 8.89° C | 96% | 1012.6 hPa | 0 mm | - | 35 W/m² | - |
| 1778026204 | 9.44° C | 95% | 1012.3 hPa | 0 mm | - | 36 W/m² | - |
| 1778025901 | 9.44° C | 95% | 1012.5 hPa | 0 mm | - | 51 W/m² | - |
| 1778024690 | 9.44° C | 95% | 1012.3 hPa | 0 mm | - | 86 W/m² | - |
| 1778022269 | 9.44° C | 93% | 1012.6 hPa | 0 mm | - | 55 W/m² | - |
| 1778021358 | 10° C | 92% | 1012.6 hPa | 0 mm | - | 64 W/m² | - |
* Rain latest hour (hover to see other rain measurements)
** Current wind speed in m/s (hover to see current wind gust speed)